Change the Weather History Date:

Sunday, January 13, 2013

  Actual Average Record
Temperature  
Mean Temperature 71 °F 46 °F  
Max Temperature 78 °F 58 °F 78 °F (2013)
Min Temperature 64 °F 35 °F 18 °F (2011)
Degree Days  
Heating Degree Days 0 19  
Month to date heating degree days 145 247  
Since 1 July heating degree days 984 1164  
Cooling Degree Days 6    
Growing Degree Days 20 (Base 50)    
Moisture  
Dew Point 63 °F    
Average Humidity 77    
Maximum Humidity 93    
Minimum Humidity 60    
Precipitation  
Precipitation 0.01 in 0.12 in 1.42 in (2006)
Month to date precipitation 0.67 1.87  
Year to date precipitation 0.67 1.87  
Snow  
Snow 0.00 in - - ()
Month to date snowfall 0.0  
Since 1 July snowfall 0.0  
Snow Depth 0.00 in    
Sea Level Pressure  
Sea Level Pressure 30.03 in    
Wind  
Wind Speed 9 mph (South)    
Max Wind Speed 17 mph    
Max Gust Speed 23 mph    
Visibility 7 miles    
Events Rain    
T = Trace of Precipitation, MM = Missing Value Source: NWS Daily Summary

Daily Weather History Graph

Daily Weather History Graph

Search for Another Location

Airport or City:

Trip Planner

Search our weather history database for the weather conditions in past years. The results will help you decide how hot, cold, wet, or windy it might be!

Date:

Astronomy

Jan. 13, 2013 Rise Set
Actual Time 6:44 AM CST 5:01 PM CST
Civil Twilight 6:18 AM CST 5:27 PM CST
Nautical Twilight 5:48 AM CST 5:57 PM CST
Astronomical Twilight 5:18 AM CST 6:27 PM CST
Moon 7:52 AM CST (1/13) 7:27 PM CST (1/13)
Length of Visible Light 11h 09m
Length of Day
10h 16m
Waxing Crescent, 5% of the Moon is Illuminated
Jan 13
Waxing Crescent
Jan 18
First Quarter
Jan 26
Full
Feb 3
Last Quarter
Feb 10
New

Hourly Weather History & Observations

Time (CST) Temp. Dew Point Humidity Pressure Visibility Wind Dir Wind Speed Gust Speed Precip Events Conditions
12:17 AM 64.4 °F 62.6 °F 94% 30.05 in 6.0 mi South 4.6 mph - N/A   Overcast
12:31 AM 64.4 °F 62.6 °F 94% 30.05 in 5.0 mi SSW 5.8 mph - N/A   Overcast
12:40 AM 64.4 °F 62.6 °F 94% 30.05 in 5.0 mi SSW 4.6 mph - N/A   Overcast
12:53 AM 64.9 °F 62.1 °F 90% 30.05 in 5.0 mi South 5.8 mph - N/A   Overcast
1:39 AM 64.4 °F 62.6 °F 94% 30.04 in 5.0 mi South 5.8 mph - N/A   Mostly Cloudy
1:53 AM 64.0 °F 62.1 °F 93% 30.03 in 5.0 mi SSE 4.6 mph - N/A   Scattered Clouds
2:04 AM 64.4 °F 62.6 °F 94% 30.03 in 5.0 mi SSE 5.8 mph - N/A   Mostly Cloudy
2:53 AM 64.0 °F 62.1 °F 93% 30.01 in 5.0 mi South 5.8 mph - N/A   Overcast
3:19 AM 64.4 °F 62.6 °F 94% 30.00 in 5.0 mi SSE 8.1 mph - N/A   Overcast
3:32 AM 64.4 °F 62.6 °F 94% 30.01 in 5.0 mi South 4.6 mph - N/A   Mostly Cloudy
3:40 AM 64.4 °F 62.6 °F 94% 30.01 in 5.0 mi South 4.6 mph - N/A   Scattered Clouds
3:53 AM 64.0 °F 62.1 °F 93% 29.99 in 5.0 mi SSE 5.8 mph - N/A   Mostly Cloudy
4:53 AM 64.9 °F 63.0 °F 93% 30.02 in 6.0 mi South 5.8 mph - N/A   Overcast
5:53 AM 66.0 °F 62.1 °F 87% 30.03 in 6.0 mi South 6.9 mph - N/A   Overcast
6:07 AM 66.2 °F 62.6 °F 88% 30.04 in 7.0 mi South 6.9 mph - N/A   Overcast
6:53 AM 66.0 °F 62.1 °F 87% 30.03 in 7.0 mi SSE 8.1 mph - N/A   Overcast
7:53 AM 66.0 °F 62.1 °F 87% 30.04 in 6.0 mi SSE 9.2 mph - N/A   Overcast
8:53 AM 68.0 °F 62.1 °F 81% 30.06 in 7.0 mi South 9.2 mph - N/A   Overcast
9:15 AM 69.8 °F 62.6 °F 78% 30.07 in 7.0 mi SSE 8.1 mph - N/A   Overcast
9:53 AM 70.0 °F 62.1 °F 76% 30.06 in 8.0 mi South 9.2 mph - N/A   Overcast
10:53 AM 72.0 °F 62.1 °F 71% 30.04 in 8.0 mi South 11.5 mph - N/A   Overcast
11:38 AM 73.4 °F 62.6 °F 69% 30.05 in 8.0 mi South 11.5 mph 17.3 mph N/A   Overcast
11:53 AM 73.0 °F 63.0 °F 71% 30.03 in 9.0 mi SSE 12.7 mph - N/A   Mostly Cloudy
12:18 PM 75.2 °F 62.6 °F 65% 30.03 in 9.0 mi South 11.5 mph 16.1 mph N/A   Mostly Cloudy
12:53 PM 75.0 °F 63.0 °F 66% 30.01 in 10.0 mi SSE 12.7 mph 18.4 mph N/A   Mostly Cloudy
1:53 PM 77.0 °F 62.1 °F 60% 29.99 in 10.0 mi South 12.7 mph - N/A   Partly Cloudy
2:53 PM 75.9 °F 61.0 °F 60% 30.00 in 10.0 mi South 12.7 mph 21.9 mph N/A   Overcast
3:53 PM 75.0 °F 62.1 °F 64% 30.00 in 9.0 mi South 9.2 mph 19.6 mph N/A   Overcast
4:53 PM 73.0 °F 63.0 °F 71% 30.01 in 8.0 mi South 10.4 mph - 0.00 in Rain Light Rain
5:53 PM 73.0 °F 64.0 °F 73% 30.04 in 9.0 mi South 9.2 mph - 0.00 in   Overcast
6:34 PM 71.6 °F 64.4 °F 78% 30.04 in 9.0 mi SSE 8.1 mph - 0.00 in   Overcast
6:53 PM 71.1 °F 64.0 °F 78% 30.03 in 9.0 mi South 6.9 mph - 0.00 in   Mostly Cloudy
7:22 PM 71.6 °F 64.4 °F 78% 30.04 in 9.0 mi South 5.8 mph - N/A   Overcast
7:53 PM 71.1 °F 64.0 °F 78% 30.04 in 10.0 mi South 8.1 mph - N/A   Overcast
8:53 PM 69.1 °F 64.9 °F 87% 30.03 in 7.0 mi South 9.2 mph - 0.00 in   Overcast
9:00 PM 69.8 °F 64.4 °F 83% 30.03 in 7.0 mi SSE 12.7 mph 17.3 mph N/A   Overcast
9:53 PM 69.1 °F 64.9 °F 87% 30.05 in 7.0 mi South 10.4 mph - N/A   Overcast
10:53 PM 68.0 °F 64.9 °F 90% 30.06 in 6.0 mi South 8.1 mph - 0.00 in   Overcast
11:53 PM 68.0 °F 66.0 °F 93% 30.04 in 5.0 mi SSE 5.8 mph - 0.01 in   Overcast